FENGYUN 1C DEB, 31384

Orbit data source: Space-Track

FENGYUN 1C DEB, 31384 is space debris in SSO originally from a launch on Mon, 10 May 1999 UTC launched from the Taiyaun Space Center, China (TSC). Fengyun 1C debris stems from the Chinese weather satellite Fengyun-1C, which was intentionally destroyed by a Chinese anti-satellite missile in 2007. This event dramatically increased the amount of space debris, with thousands of trackable fragments posing hazards to satellites and human spaceflight. The Fengyun 1C debris cloud has become a focal point in discussions about space sustainability and the need for international regulations to prevent the creation of new debris.

Loading next visibility...
Identifier
31384, 1999-025BSQ
Orbit
SSO
Country
Flag of CNCN / PRC
Related business
Manufacturer
Unknown
Mission
Spacecraft
Bus & Motor
Unknown
Mass
Unknown
Launch date (UTC)
1999-05-10 (27 years ago)
Launch vehicle
Unknown
Launch site
Taiyaun Space Center, China (TSC)
Object type
Payload
Rocket body
Debris
Shape & HBR
Unknown shape, 0.1 m
Radar Cross Section
Medium (>0.1 m² and <1 m²)

Expand to show TLE details & history
Last TLE update: 9 hours ago

TLE from 9 hours ago
0 FENGYUN 1C DEB
1 31384U 99025BSQ 26255.33319167  .00003974  00000-0  15784-2 0  9997
2 31384  98.4765 201.8743 0432308   7.1199 143.3037 13.88488688968187
Epoch: 2026-09-12T07:59Z
TLE epoch observation values (Epoch: 2026-09-12T07:59:47.760Z)
Latitude
26.45851°
Longitude
-85.18628°
Altitude
1,195.271 km
Speed
7.129 km/s
True Right ascension
01h 44m 25s
True Declination
26° 19' 46"
Sunlit
Object was in full shadow at epoch
Visualization orbit readout
Latitude
Unknown
Longitude
Unknown
Altitude
Unknown
Speed
Unknown
Apparent Right ascension
Unknown
Apparent Declination
Unknown
Sunlit
N/A
Visualization observer readout
Local Sidereal Time
09:31:56
Azimuth
Unknown
Elevation
Unknown
Doppler factor
Unknown
Orbital elements
Apogee altitude
1,247.099 km
Perigee altitude
615.129 km
Semi-major axis
7,309.251 km
Eccentricity
0.04323
Inclination
98.4765°
RAAN
201.8743°
Arg. of periapsis
7.1199°
True anomaly
146.13973°
Mean anomaly
143.3037°
Eccentric anomaly
144.73383°
Mean motion
3.47323 °/min
Orbital period
103.65 mins
BSTAR
0.0015784
Loading maneuver chart data...
Computing Atmospheric mass density...
Loading historical data...
Loading historical data...
Loading historical data...
Loading historical data...
Loading historical data...
Loading historical data...
Loading historical data...

Documentation

Showing up to 5 results
|